Temperature
26 26 25 25 23 22 25 26 26 26 25 25 25 25 24 23 21 19 20 20 21 21 20 20 20 20 20 19 19 19 19 19 19 19 19 18 18 18 18 18 18 18 18 18 18 18 18 18 18
27 26 26 25 23 23 25 26 26 26 25 25 25 24 23 21 20 19 19 20 21 21 20 20 20 20 20 19 19 19 19 19 19 19 18 18 18 18 18 18 18 18 18 18 18 18 18 18 17
27 27 26 23 24 24 25 26 26 27 26 26 25 24 23 21 20 20 21 21 21 21 20 20 20 20 20 19 19 19 19 19 19 18 18 18 18 18 18 18 18 18 18 18 18 18 18 17 17
28 27 26 23 25 26 26 26 27 27 26 26 25 24 23 22 22 21 21 21 21 21 20 20 20 20 20 19 19 19 19 19 18 18 18 18 18 18 18 18 18 18 18 18 18 18 17 17 17
28 27 24 24 26 27 28 28 27 26 26 25 24 23 22 22 22 22 21 21 22 21 20 20 20 20 20 20 19 19 19 19 18 18 18 18 18 18 18 18 18 18 18 18 18 18 17 17 17
28 24 23 24 26 28 28 28 27 26 25 24 24 23 22 22 22 21 21 22 22 21 21 20 20 20 20 20 19 19 19 19 19 18 18 18 18 18 18 18 18 18 18 18 18 18 17 17 17
27 23 24 25 26 27 28 28 27 26 25 25 24 22 22 21 22 21 21 21 21 21 21 20 20 20 20 20 19 19 19 19 19 19 18 18 18 18 18 18 18 18 18 18 18 18 17 17 17
28 23 24 25 26 27 28 28 28 27 26 25 24 23 22 21 21 21 21 21 21 21 21 20 20 20 20 19 19 19 19 19 19 19 18 18 18 18 18 18 18 18 18 18 18 18 17 17 17
29 23 24 26 27 28 29 28 28 27 26 26 25 24 23 22 21 21 21 20 20 20 20 20 20 20 20 20 19 19 19 19 19 18 18 18 18 18 18 18 18 18 18 18 18 18 17 17 17
28 23 26 28 28 28 29 29 28 27 25 25 24 24 23 22 22 21 21 20 20 20 20 20 20 20 20 19 19 19 19 19 18 18 18 18 18 18 18 18 18 18 18 18 18 18 18 17 17
27 26 28 29 30 30 29 29 28 26 24 24 24 23 23 22 22 22 21 21 21 21 20 20 20 20 20 19 19 19 19 19 18 18 18 18 18 18 18 18 18 18 18 18 18 18 18 18 17
28 29 30 30 31 30 29 29 27 27 26 26 25 24 23 22 22 22 21 21 21 20 20 20 20 20 19 19 19 19 19 19 18 18 18 18 18 18 18 18 18 18 18 18 18 18 18 18 17
29 29 31 31 31 30 30 28 27 26 26 25 25 24 23 23 22 22 22 21 21 20 20 20 19 19 19 19 19 19 19 19 18 18 18 18 18 18 18 18 18 18 18 18 18 17 17 17 17
29 30 30 31 31 30 29 28 27 26 26 25 24 24 23 23 23 22 22 21 21 21 20 20 19 19 19 19 19 19 19 19 18 18 18 18 18 18 18 18 18 18 18 17 18 18 17 17 17
30 28 28 29 30 30 29 27 26 26 25 24 24 24 23 23 23 22 22 22 21 21 20 20 19 19 19 19 19 19 19 18 18 18 18 18 18 18 18 18 18 18 17 17 17 17 17 17 17
28 27 27 28 29 30 28 26 26 26 25 24 24 23 23 23 23 23 22 22 21 21 20 20 19 19 19 19 19 19 18 18 18 18 18 18 18 18 18 18 18 18 17 17 17 17 17 17 17
26 26 27 28 30 29 27 26 26 26 25 24 24 23 23 23 23 22 22 22 21 21 20 20 20 19 19 19 19 18 18 18 18 18 18 18 18 18 18 18 18 18 17 18 18 17 17 17 17
26 27 27 28 29 29 27 26 26 26 25 24 24 23 23 23 22 22 22 21 21 21 20 20 20 19 19 19 19 18 18 18 18 18 18 18 18 18 18 18 18 18 18 18 17 17 17 17 17
27 28 28 28 29 28 27 26 26 26 25 24 23 23 23 22 22 22 22 21 21 20 20 20 20 19 19 19 19 19 18 18 18 18 18 18 18 18 18 18 18 18 18 18 18 17 17 17 17
28 28 27 28 29 28 26 26 26 25 25 24 23 23 23 22 22 21 21 21 21 20 20 20 19 19 19 19 19 19 18 18 18 18 18 18 18 18 18 18 18 18 18 18 18 17 17 18 17
28 28 28 28 27 26 26 25 24 24 25 24 24 23 23 22 22 21 21 21 20 20 20 19 19 19 19 19 18 18 18 18 18 18 18 18 18 18 18 18 18 18 18 18 18 17 17 18 17
27 28 29 28 26 24 26 23 24 23 23 23 23 23 23 22 22 22 21 21 20 20 20 19 19 19 19 18 18 18 18 18 18 18 18 18 18 18 18 18 18 18 18 18 18 18 17 17 18
29 29 29 28 26 24 24 23 23 23 23 22 22 23 23 22 22 22 21 21 21 20 20 19 19 19 18 18 18 18 18 18 18 18 18 18 18 18 18 18 18 18 18 18 18 18 18 18 18
30 27 25 22 22 23 24 23 23 22 23 23 22 23 22 22 22 22 21 21 20 20 19 19 19 19 18 18 18 18 18 18 18 18 18 18 18 18 18 18 18 18 18 18 18 18 18 18 18
27 23 22 23 21 22 23 23 22 23 24 23 23 23 23 22 22 21 21 21 20 20 19 19 19 19 18 18 18 18 18 18 18 18 18 18 18 18 18 18 18 18 18 18 17 17 17 17 17
27 23 22 23 22 22 22 23 23 24 24 25 24 23 23 22 22 22 21 21 20 20 20 19 19 19 18 18 18 18 18 18 18 18 18 18 18 18 18 18 18 18 17 17 17 17 17 17 17
28 24 22 21 22 22 22 23 24 23 23 23 23 23 22 22 22 22 21 21 20 20 20 19 19 19 19 18 18 18 18 18 18 18 18 18 18 18 18 18 17 17 17 17 17 17 17 17 17
27 25 21 21 22 22 23 23 22 22 22 22 22 22 22 22 22 22 22 21 20 20 20 19 19 19 19 19 18 18 18 18 18 18 18 18 18 18 18 17 17 17 17 17 17 17 17 17 17
28 27 22 19 20 21 22 22 23 22 22 22 22 22 22 22 22 22 22 21 21 20 20 19 19 19 19 19 19 18 18 18 18 17 18 18 17 17 17 17 17 17 17 17 17 17 17 17 17
26 25 22 22 22 20 20 21 23 22 22 22 22 23 23 22 22 22 22 21 21 20 20 20 19 19 19 19 19 18 18 18 18 18 18 17 17 17 17 17 17 17 17 17 17 17 16 16 16
Wind_Speed
6 3 2 1 5 6 8 8 10 12 8 10 12 11 10 8 6 9 5 14 16 13 15 16 17 17 16 16 16 16 16 16 16 15 15 15 15 15 15 15 15 15 15 15 15 15 16 16 16
3 2 2 4 6 7 6 9 15 15 13 14 14 14 11 9 10 11 8 14 16 14 15 16 17 17 16 16 16 16 15 15 15 15 14 14 14 15 15 15 15 15 15 15 15 14 15 15 15
3 2 3 4 4 7 6 10 15 15 13 11 8 8 6 8 11 8 11 17 14 13 15 17 18 17 17 16 16 15 15 15 15 14 14 14 14 14 14 14 14 14 14 14 14 14 14 14 13
1 3 4 5 6 6 9 9 14 14 10 10 10 8 5 7 8 13 18 17 16 11 15 18 18 18 17 16 16 15 15 14 14 14 14 14 13 14 13 13 14 13 13 13 13 13 12 12 12
3 5 7 5 5 7 10 12 11 12 7 10 12 9 6 6 18 21 19 18 16 12 14 17 18 17 17 16 15 15 15 14 14 13 13 13 13 13 13 13 13 13 12 12 11 11 11 11 10
4 5 5 3 4 5 7 11 15 16 15 13 13 10 5 12 19 19 18 16 15 14 13 16 18 17 17 16 15 15 14 14 14 13 13 13 13 13 13 12 12 12 12 11 10 10 10 9 9
4 4 1 2 4 6 7 9 12 14 14 10 11 8 7 12 15 17 16 15 13 13 12 12 15 16 16 15 15 14 14 14 13 13 13 13 13 13 12 12 11 11 11 10 9 9 8 8 8
4 4 2 2 4 4 6 7 9 12 10 13 10 9 9 13 15 16 15 13 12 10 9 9 12 13 13 14 14 14 14 13 13 13 13 13 13 12 12 11 11 11 10 9 9 8 7 6 7
5 5 1 2 5 4 7 10 6 8 10 6 5 7 14 18 19 17 14 11 10 11 8 8 9 11 12 13 13 13 13 13 13 12 13 12 11 11 10 10 10 10 9 8 7 6 5 4 5
5 4 5 4 6 7 8 10 8 7 10 8 10 12 17 18 19 18 17 15 13 12 11 9 9 10 11 11 12 11 10 11 11 10 11 11 10 9 9 10 9 9 8 6 5 3 2 2 3
4 5 3 2 5 9 8 6 6 11 7 11 17 18 17 16 15 15 15 15 14 14 12 11 10 10 10 7 10 9 8 10 10 10 11 10 9 8 8 7 7 6 6 4 3 2 1 1 1
1 3 1 1 4 7 7 6 6 6 9 15 18 19 16 15 14 14 14 13 12 12 12 11 10 9 9 9 9 9 7 8 8 10 12 10 7 6 6 6 6 5 4 4 3 2 2 1 2
1 2 2 0 3 6 8 7 7 6 12 15 16 16 15 13 11 10 12 11 11 11 10 11 10 9 8 8 7 8 7 8 9 10 12 12 8 5 6 5 6 6 6 6 5 3 2 2 2
3 3 4 3 2 3 9 6 7 8 14 16 15 14 13 13 12 10 11 11 11 11 10 9 10 9 9 7 5 6 7 8 9 9 11 13 11 8 6 5 5 6 7 7 6 5 3 2 2
4 5 7 4 1 3 8 5 5 11 14 15 14 13 12 11 12 13 13 12 12 11 10 10 10 9 9 7 6 6 7 8 7 8 11 12 12 11 8 5 4 6 8 7 5 4 3 2 2
6 4 4 6 2 3 7 4 6 12 14 13 13 12 11 9 10 10 11 10 10 10 10 10 10 9 8 6 5 5 6 7 7 8 10 12 12 11 8 5 4 7 7 6 3 2 2 1 1
5 3 5 6 1 3 5 5 7 11 13 12 12 11 10 9 8 9 10 11 10 11 10 9 8 9 8 6 5 5 5 6 7 7 8 10 11 11 8 5 5 7 5 3 3 2 3 2 2
5 5 4 3 2 4 5 4 8 11 12 12 11 10 10 10 9 9 10 10 9 9 9 8 8 7 7 5 4 3 3 3 4 6 7 9 9 10 8 5 5 6 4 3 3 3 2 3 3
5 4 4 4 1 3 4 4 7 10 11 11 10 10 10 9 7 8 9 10 9 7 7 7 8 7 6 4 4 3 2 2 2 4 7 9 10 9 7 4 4 5 4 5 5 3 3 2 2
4 3 4 5 3 4 3 1 4 8 11 13 14 12 11 9 7 8 8 9 8 8 7 7 7 7 7 5 4 3 3 2 3 3 5 8 9 9 8 6 4 4 4 4 4 4 3 2 2
5 2 2 2 5 6 6 6 3 1 4 7 9 10 10 11 11 10 9 8 8 8 8 8 7 7 7 6 4 3 2 1 1 2 3 5 8 9 8 7 6 5 4 4 4 5 5 3 2
5 5 0 3 5 2 3 1 4 1 1 5 7 8 10 11 11 10 9 9 8 8 7 7 7 7 6 6 6 6 5 4 5 4 4 4 6 7 8 7 6 5 4 5 5 5 4 4 3
5 3 2 2 3 4 4 4 5 1 1 4 7 10 10 10 11 11 10 10 8 7 7 7 7 7 6 6 7 6 4 4 3 3 4 4 3 5 6 7 6 5 4 5 5 4 4 4 4
1 6 8 7 6 3 3 4 4 3 5 6 7 9 10 10 10 10 9 8 6 6 6 6 7 6 6 6 6 6 5 4 4 4 4 3 3 3 4 5 5 5 4 5 5 5 5 5 4
6 7 5 6 5 4 3 3 5 5 5 8 10 10 10 10 10 10 9 8 7 7 7 6 7 6 6 6 6 6 6 6 6 5 5 4 3 3 4 4 4 4 5 5 5 5 4 5 4
3 10 7 4 3 5 5 1 4 1 3 6 8 9 11 10 10 10 10 9 9 8 8 7 7 6 6 6 5 5 5 4 4 4 4 4 3 3 3 3 3 4 5 5 4 4 4 3 4
4 4 9 7 1 1 4 2 4 3 7 7 7 7 9 10 11 10 9 8 8 8 8 8 8 6 5 5 5 4 4 4 4 4 4 3 2 3 3 3 3 3 3 3 3 2 2 2 2
8 8 7 5 3 1 3 3 4 4 4 6 7 7 7 8 9 9 9 8 7 7 6 6 7 6 5 5 4 4 4 4 4 3 3 3 2 2 2 2 2 2 2 2 3 2 2 2 1
4 5 6 5 6 6 2 6 6 9 9 9 8 9 9 9 8 8 7 7 7 6 7 6 6 5 5 5 4 3 3 4 4 3 3 3 2 2 2 2 3 2 2 2 3 2 3 3 1
7 8 8 5 4 5 5 6 4 9 8 9 9 10 9 9 8 7 7 7 7 7 7 6 6 5 5 4 4 4 3 4 4 3 3 3 3 2 2 2 3 3 3 3 3 3 3 3 2
Wind_Direction
286 241 172 109 53 58 85 91 92 79 62 63 75 81 80 66 103 128 136 132 130 132 133 129 126 124 121 119 115 112 109 106 104 103 102 103 105 105 105 105 106 107 107 107 106 105 106 106 107
270 216 137 51 76 78 75 93 93 96 112 99 82 80 73 71 90 113 122 132 131 131 132 132 130 127 123 121 118 115 113 111 108 107 107 107 107 108 108 108 109 110 109 109 109 108 107 107 108
242 193 87 64 92 113 101 95 105 104 102 96 92 72 72 106 115 123 136 136 129 127 131 135 133 129 126 124 122 120 118 116 114 112 112 111 111 112 111 112 113 112 111 110 110 110 110 109 110
1 56 49 69 87 111 119 117 116 110 88 83 93 76 73 113 121 134 137 135 128 127 132 136 135 133 131 129 127 125 123 120 118 117 116 115 114 114 114 115 115 115 115 113 112 112 112 112 111
66 60 50 61 79 101 115 118 115 108 98 97 97 96 76 82 121 134 138 137 133 132 135 139 138 137 135 133 131 129 126 124 121 120 120 118 117 117 117 117 117 117 118 117 115 115 116 114 109
47 59 62 72 83 91 103 113 108 106 113 111 107 106 98 124 131 140 140 138 137 138 138 140 141 140 138 136 135 133 131 129 126 125 125 123 122 122 122 121 121 121 121 120 118 118 117 114 107
96 85 120 135 104 109 125 121 118 128 132 135 129 110 121 140 142 140 137 136 136 137 137 138 142 142 142 141 140 137 136 135 133 131 129 128 128 128 127 126 125 125 125 123 121 119 116 110 105
127 93 51 76 107 128 137 123 126 129 126 132 134 131 149 155 141 134 131 131 134 138 141 140 141 142 143 145 145 143 142 140 139 137 135 135 133 133 133 132 131 131 131 130 127 123 119 111 101
98 78 103 167 134 140 128 116 121 107 117 140 127 132 146 142 136 134 132 133 141 146 150 148 147 147 148 150 152 151 149 147 145 144 142 137 132 135 140 143 142 140 139 137 135 128 118 101 96
103 136 210 189 147 137 131 126 130 107 106 97 99 114 133 138 142 144 149 153 157 158 163 163 160 158 159 158 149 153 153 152 151 151 146 144 145 150 152 153 151 150 148 146 149 143 117 86 79
149 184 206 180 141 129 124 122 115 124 130 148 143 145 147 144 148 152 158 162 165 166 168 168 166 166 166 152 153 161 160 160 163 166 161 155 153 155 154 152 153 156 157 159 172 173 228 216 161
179 259 224 162 128 134 132 121 109 133 159 155 150 151 151 153 157 158 158 162 161 161 166 167 167 166 166 157 164 168 168 172 174 177 173 160 153 153 156 157 165 173 181 187 199 219 233 247 209
17 324 348 269 84 127 126 122 122 124 135 140 143 148 154 155 156 158 156 157 155 157 163 167 162 163 163 158 168 171 176 177 182 178 175 169 161 163 168 175 183 193 198 196 198 204 206 211 186
290 338 343 347 21 125 128 129 116 139 140 141 147 155 159 160 157 154 154 156 159 160 161 160 159 161 160 163 168 166 177 177 176 178 176 173 169 168 170 177 187 200 203 197 187 185 181 181 165
330 1 337 294 239 170 114 90 146 152 144 146 156 161 162 163 160 163 165 160 161 161 159 157 158 156 158 159 161 164 173 171 171 178 177 172 169 168 167 170 182 196 197 184 170 172 165 172 166
356 16 322 284 208 186 114 155 174 153 147 150 160 165 163 163 164 163 160 156 157 156 156 162 163 156 157 151 142 151 162 164 168 172 172 171 170 169 164 168 182 187 177 165 152 154 150 166 170
1 319 279 299 218 159 119 164 169 160 153 155 159 163 161 160 160 160 159 157 158 158 158 160 155 156 156 146 138 145 153 159 163 165 169 174 174 171 164 173 182 175 163 162 174 155 160 168 185
270 293 305 287 274 110 105 145 157 166 159 158 157 160 162 168 173 163 154 153 152 153 154 156 152 155 151 141 127 119 124 140 158 167 172 177 176 171 166 171 176 164 155 166 168 170 175 177 183
256 299 310 284 232 92 106 132 161 165 159 158 158 163 168 170 163 150 149 150 147 151 155 159 156 160 155 149 149 145 151 161 172 184 178 181 183 176 167 165 168 166 169 180 176 170 182 193 153
292 321 328 335 25 72 87 70 166 164 175 175 166 165 166 154 148 148 147 150 154 160 161 158 162 164 168 165 160 160 154 169 185 195 186 186 186 183 179 171 177 177 170 175 180 167 161 199 164
302 276 286 316 17 36 70 8 2 42 157 165 160 160 161 161 164 160 155 156 156 163 169 172 167 168 174 162 143 134 112 106 156 193 200 203 195 192 186 181 178 181 177 187 195 183 172 192 216
270 268 308 47 54 326 86 154 297 279 112 166 164 160 163 164 164 160 157 157 163 170 167 164 164 167 173 164 162 168 175 193 207 199 201 204 195 193 190 186 184 186 185 191 202 193 184 175 202
228 268 47 58 71 18 16 119 282 350 144 187 174 168 161 162 161 162 166 166 169 169 166 166 164 169 173 171 172 179 190 202 204 193 184 196 199 194 195 191 187 188 192 196 200 189 184 184 189
117 38 26 42 62 13 279 146 260 236 199 180 180 168 160 159 158 156 157 154 158 163 164 164 167 176 179 180 180 186 192 195 190 184 181 195 198 201 207 202 196 197 196 199 201 196 192 194 191
75 75 28 5 12 267 281 129 243 242 186 166 173 172 167 160 154 152 153 157 161 165 169 167 170 179 184 187 194 199 196 189 189 187 189 194 197 210 219 213 205 204 204 201 196 195 201 194 190
155 132 151 188 222 285 339 194 262 225 143 139 154 160 159 158 157 159 166 165 169 172 172 171 174 182 185 187 194 195 188 186 191 188 181 188 197 210 210 203 203 201 197 201 190 192 200 188 195
149 165 165 138 160 349 319 318 349 53 92 101 125 146 163 162 160 162 167 169 172 174 177 176 176 182 185 179 173 178 176 177 180 178 179 187 194 201 189 184 182 181 175 170 163 166 185 173 188
157 152 95 108 142 255 307 284 213 193 142 128 136 155 164 158 157 161 164 171 174 172 170 166 170 175 174 172 170 168 169 170 169 163 168 169 179 174 157 157 154 149 150 152 151 149 158 141 163
164 131 115 126 150 148 219 271 228 193 173 159 159 161 159 159 162 164 168 172 165 157 157 158 159 158 161 165 161 153 160 161 151 150 159 159 160 153 149 153 138 127 126 134 130 136 132 135 137
166 171 146 153 210 156 159 261 256 183 172 155 159 163 160 162 164 159 162 163 156 154 156 158 159 159 166 166 157 156 151 145 143 150 156 154 151 140 132 121 111 116 117 122 131 141 128 129 124
Height
1506 1504 1503 1504 1506 1518 1520 1513 1508 1507 1510 1511 1510 1511 1515 1520 1526 1537 1535 1536 1538 1540 1542 1544 1545 1546 1547 1547 1548 1548 1549 1550 1551 1551 1552 1553 1553 1554 1554 1555 1555 1556 1556 1557 1557 1558 1558 1559 1559
1506 1504 1505 1506 1516 1533 1526 1512 1511 1511 1513 1513 1514 1516 1518 1524 1527 1531 1534 1538 1539 1541 1543 1545 1546 1547 1548 1549 1549 1550 1551 1552 1552 1553 1554 1554 1555 1556 1556 1557 1557 1558 1558 1559 1559 1560 1561 1561 1562
1505 1504 1506 1510 1520 1529 1525 1513 1512 1513 1514 1513 1516 1519 1523 1528 1530 1532 1535 1538 1540 1542 1544 1546 1547 1548 1549 1550 1551 1552 1552 1553 1554 1555 1555 1556 1557 1557 1558 1558 1559 1560 1560 1561 1561 1562 1563 1563 1564
1506 1507 1508 1516 1521 1515 1513 1512 1511 1513 1515 1516 1517 1523 1527 1530 1531 1533 1536 1539 1541 1543 1545 1547 1548 1549 1550 1551 1552 1553 1554 1555 1555 1556 1557 1558 1558 1559 1560 1560 1561 1562 1562 1563 1564 1564 1565 1566 1567
1507 1508 1515 1524 1520 1512 1509 1509 1510 1512 1516 1519 1519 1525 1530 1532 1533 1535 1538 1540 1542 1544 1546 1548 1549 1550 1551 1552 1553 1554 1555 1556 1557 1558 1558 1559 1560 1561 1561 1562 1563 1563 1564 1565 1566 1567 1567 1568 1569
1509 1512 1527 1532 1521 1513 1511 1510 1512 1515 1519 1522 1523 1527 1533 1534 1534 1537 1539 1541 1543 1544 1546 1548 1550 1551 1552 1553 1555 1556 1556 1557 1558 1559 1560 1561 1562 1562 1563 1564 1565 1565 1566 1567 1568 1569 1570 1571 1571
1512 1518 1527 1525 1522 1517 1513 1512 1512 1516 1519 1521 1523 1527 1534 1536 1536 1538 1540 1542 1544 1546 1547 1549 1550 1552 1553 1554 1556 1556 1558 1559 1559 1560 1561 1562 1563 1564 1565 1566 1567 1567 1568 1569 1570 1571 1572 1573 1573
1512 1517 1524 1524 1521 1518 1512 1512 1514 1515 1519 1522 1523 1525 1531 1535 1537 1539 1542 1544 1545 1547 1548 1549 1551 1553 1554 1555 1556 1557 1559 1560 1561 1562 1563 1564 1565 1566 1567 1568 1569 1569 1570 1571 1572 1573 1574 1575 1575
1512 1522 1529 1522 1518 1515 1510 1511 1515 1516 1518 1522 1523 1524 1528 1534 1537 1539 1542 1544 1546 1547 1549 1550 1551 1553 1554 1555 1557 1558 1559 1561 1562 1563 1564 1565 1566 1567 1568 1569 1570 1571 1572 1573 1574 1575 1576 1577 1577
1512 1525 1520 1510 1509 1510 1510 1510 1513 1517 1520 1522 1524 1527 1531 1534 1536 1538 1540 1542 1545 1547 1549 1550 1552 1553 1555 1556 1558 1559 1560 1561 1563 1564 1565 1566 1567 1568 1570 1571 1572 1573 1574 1575 1576 1577 1578 1578 1579
1510 1515 1509 1506 1506 1507 1510 1512 1513 1516 1521 1521 1523 1527 1531 1534 1536 1538 1540 1541 1544 1546 1548 1550 1552 1554 1555 1557 1558 1559 1561 1562 1563 1565 1566 1567 1568 1569 1571 1572 1573 1574 1575 1576 1577 1578 1579 1580 1580
1509 1507 1505 1505 1505 1507 1508 1510 1513 1514 1517 1519 1522 1525 1529 1533 1535 1537 1539 1541 1544 1546 1548 1550 1552 1554 1555 1557 1558 1560 1561 1562 1564 1565 1566 1568 1569 1570 1572 1573 1574 1576 1576 1577 1578 1579 1580 1581 1581
1509 1507 1505 1504 1505 1506 1508 1509 1512 1515 1517 1520 1524 1527 1530 1532 1535 1537 1539 1541 1543 1545 1547 1549 1551 1553 1555 1557 1559 1560 1561 1562 1564 1565 1567 1568 1569 1571 1572 1574 1575 1576 1577 1578 1579 1580 1581 1581 1582
1509 1506 1505 1505 1504 1506 1508 1511 1512 1517 1519 1521 1525 1527 1530 1532 1534 1537 1539 1540 1542 1544 1546 1549 1551 1553 1555 1557 1558 1560 1561 1562 1564 1565 1567 1568 1570 1571 1573 1574 1575 1576 1578 1579 1579 1580 1581 1582 1582
1508 1508 1507 1504 1504 1505 1507 1515 1514 1516 1519 1521 1524 1527 1529 1532 1534 1535 1537 1539 1541 1543 1546 1548 1550 1552 1554 1556 1558 1559 1560 1562 1563 1565 1567 1568 1570 1571 1572 1574 1575 1576 1577 1579 1579 1580 1581 1582 1582
1510 1515 1520 1507 1503 1504 1511 1525 1515 1516 1518 1521 1524 1527 1529 1531 1533 1535 1537 1539 1541 1543 1545 1547 1549 1551 1554 1556 1557 1558 1560 1562 1563 1564 1566 1568 1569 1571 1572 1573 1575 1576 1577 1578 1579 1580 1581 1582 1582
1522 1528 1524 1512 1503 1503 1510 1519 1515 1516 1517 1520 1524 1527 1529 1531 1533 1534 1536 1538 1540 1542 1544 1546 1548 1550 1552 1554 1556 1558 1559 1561 1562 1564 1565 1567 1569 1570 1572 1573 1574 1575 1577 1578 1579 1580 1580 1581 1582
1531 1526 1522 1518 1506 1505 1511 1515 1515 1517 1518 1520 1523 1526 1528 1530 1531 1533 1535 1537 1540 1541 1543 1545 1547 1549 1551 1553 1554 1557 1558 1560 1561 1563 1564 1566 1567 1569 1571 1572 1573 1574 1576 1577 1578 1578 1579 1580 1581
1519 1521 1522 1514 1505 1508 1513 1515 1514 1515 1517 1519 1521 1524 1527 1529 1531 1533 1534 1536 1538 1540 1541 1543 1545 1547 1549 1551 1553 1555 1557 1559 1560 1562 1563 1564 1566 1568 1569 1571 1572 1573 1574 1575 1576 1577 1578 1578 1579
1516 1521 1521 1513 1506 1510 1516 1518 1514 1514 1515 1516 1518 1522 1525 1527 1530 1532 1533 1535 1537 1538 1540 1541 1543 1545 1547 1549 1552 1554 1556 1557 1559 1560 1561 1563 1565 1566 1568 1569 1570 1572 1573 1573 1574 1575 1576 1577 1578
1516 1518 1518 1518 1513 1512 1518 1527 1521 1517 1516 1517 1519 1521 1524 1526 1528 1530 1532 1534 1536 1537 1538 1540 1541 1543 1545 1547 1550 1552 1554 1556 1557 1559 1560 1561 1563 1565 1566 1567 1568 1570 1570 1571 1572 1573 1574 1575 1576
1521 1509 1510 1513 1524 1533 1526 1547 1531 1522 1520 1518 1520 1521 1523 1525 1526 1529 1531 1533 1535 1536 1537 1539 1540 1541 1543 1545 1548 1549 1551 1553 1554 1556 1558 1559 1561 1563 1564 1565 1566 1567 1568 1569 1570 1571 1572 1573 1573
1509 1504 1508 1513 1523 1534 1532 1544 1539 1525 1525 1522 1520 1520 1522 1524 1526 1528 1530 1532 1534 1535 1536 1537 1539 1540 1542 1544 1546 1548 1549 1551 1553 1555 1556 1557 1559 1561 1562 1563 1564 1565 1566 1567 1568 1569 1570 1570 1571
1501 1508 1515 1524 1534 1550 1538 1542 1543 1530 1522 1520 1520 1521 1522 1524 1526 1528 1530 1532 1533 1534 1535 1537 1538 1539 1541 1542 1544 1546 1547 1549 1551 1552 1554 1555 1557 1558 1560 1561 1561 1562 1563 1564 1565 1566 1567 1568 1568
1506 1530 1552 1553 1562 1557 1536 1540 1539 1519 1514 1515 1518 1520 1522 1524 1526 1528 1530 1532 1533 1534 1535 1536 1537 1538 1539 1541 1542 1543 1545 1547 1548 1550 1552 1553 1555 1556 1557 1558 1558 1559 1560 1562 1563 1563 1564 1565 1566
1511 1527 1554 1563 1566 1557 1540 1541 1530 1513 1513 1513 1517 1520 1522 1524 1526 1528 1529 1531 1532 1533 1534 1535 1536 1537 1538 1539 1540 1542 1543 1545 1546 1548 1549 1551 1552 1553 1554 1555 1556 1556 1557 1558 1560 1561 1561 1562 1563
1510 1521 1526 1546 1551 1558 1550 1536 1524 1515 1515 1515 1518 1521 1523 1524 1526 1528 1529 1531 1532 1533 1534 1535 1536 1536 1537 1538 1539 1540 1542 1543 1545 1546 1548 1549 1550 1551 1552 1553 1553 1554 1555 1556 1557 1557 1558 1559 1560
1500 1510 1531 1545 1559 1565 1553 1545 1539 1525 1520 1518 1520 1522 1523 1525 1526 1528 1530 1531 1532 1533 1534 1535 1536 1536 1537 1538 1538 1539 1541 1542 1543 1545 1546 1547 1548 1549 1549 1550 1551 1552 1553 1553 1554 1555 1555 1556 1556
1504 1510 1525 1541 1547 1561 1564 1552 1521 1519 1516 1517 1519 1520 1522 1525 1527 1528 1530 1531 1532 1533 1534 1535 1536 1537 1537 1538 1538 1539 1540 1541 1542 1543 1544 1545 1546 1547 1548 1548 1549 1550 1550 1551 1552 1552 1553 1553 1553
1497 1505 1520 1538 1543 1548 1555 1548 1512 1512 1512 1514 1517 1520 1521 1523 1526 1528 1530 1531 1532 1533 1534 1535 1536 1537 1537 1538 1538 1539 1539 1540 1541 1542 1543 1544 1545 1546 1546 1547 1547 1548 1548 1548 1549 1549 1550 1550 1550